User: anonymous   Login
Location: Unspecified
(0.0000°N, 0.0000°E)
Time: 16:19:06
(UTC+01:00)
Language:

Iridium 39 - Orbit

View from above orbital plane
View from above orbital plane
View from above satellite
View from above satellite

Ground track
Ground track

The orbit data is extracted from the following two-line orbital elements,

1 25042U 97069D   15057.38475363  .00000481  00000-0  16467-3 0  9991
2 25042 086.4007 014.0207 0002325 102.2711 257.8745 14.34212022905654
Epoch (UTC): 26 February 2015 09:14:02
Eccentricity: 0.0002325
inclination: 86.4007°
perigee height: 776 km
apogee height: 779 km
right ascension of ascending node: 14.0207°
argument of perigee: 102.2711°
revolutions per day: 14.34212022
mean anomaly at epoch: 257.8745°
orbit number at epoch: 90565

The dashed part of the orbit path shows where the satellite is in the earth's shadow,  

DLR